Regional Weather Roundup
Issued by NWS Little Rock, AR

Home | Current Version | Previous Version | Graphics & Text | Print | Product List | Glossary On
Versions: 1 2 3 4 5 6 7 8 9 10 11 12 13 14 15 16 17 18 19 20 21 22 23 24 25 26 27 28 29 30 31 32 33 34 35 36 37 38 39 40 41 42 43 44 45 46 47 48 49 50
000
ASUS44 KLZK 301405
RWRLZK

WEATHER ROUNDUP FOR ARKANSAS
NATIONAL WEATHER SERVICE LITTLE ROCK AR
900 AM CDT SAT MAY 30 2015

NOTE: "FAIR" INDICATES FEW OR NO CLOUDS BELOW 12,000 FEET WITH NO
SIGNIFICANT WEATHER AND/OR OBSTRUCTIONS TO VISIBILITY.

ARZ001-003-010-029-301500-
NORTHWEST ARKANSAS

CITY           SKY/WX    TMP DP  RH WIND       PRES   REMARKS
FAYETTEVILLE   CLOUDY    65  63  93 N5        30.04R
FORT SMITH     MOSUNNY   71  64  78 W9        30.02R
HARRISON       LGT RAIN  66  65  96 NW5       30.02R FOG
BENTONVILLE    CLOUDY    64  61  88 N6        30.04S
ROGERS         CLOUDY    65  63  93 NW5       30.05R
SILOAM SPGS    CLOUDY    64  59  82 N10       30.06R
HIGHFILL       CLOUDY    66  63  90 N9        30.04R
SPRINGDALE     CLOUDY    66  63  88 NW10      30.06R
$$

ARZ004-005-016-301500-
NORTH CENTRAL ARKANSAS

CITY           SKY/WX    TMP DP  RH WIND       PRES   REMARKS
BATESVILLE     CLOUDY    68  66  94 W12       29.94R
FLIPPIN        CLOUDY    66  64  94 NW6       29.97R
MTN HOME       LGT RAIN  66  65  96 NW6       29.98R
$$

ARZ040-041-301500-
WEST CENTRAL ARKANSAS

CITY           SKY/WX    TMP DP  RH WIND       PRES   REMARKS
MENA           MOSUNNY   72  64  78 W6        30.04R
MOUNT IDA      CLOUDY    70  65  84 VRB5      30.01R
$$

ARZ009-017-025-026-028-301500-
NORTHEAST ARKANSAS

CITY           SKY/WX    TMP DP  RH WIND       PRES   REMARKS
CORNING          N/A     72  70  94 S15G21    29.94S
JONESBORO      LGT RAIN  70  68  93 S12       29.94S
NEWPORT        LGT RAIN  71  71 100 S16       29.94S FOG
WALNUT RIDGE   MOSUNNY   72  66  83 S14       29.93S
BLYTHEVILLE    CLOUDY    75  69  81 S16G26    29.98S
$$

ARZ022-023-033-042-044-301500-
CENTRAL ARKANSAS

CITY           SKY/WX    TMP DP  RH WIND       PRES   REMARKS
LITTLE ROCK    CLOUDY    72  66  81 SW10      30.00R
N LITTLE ROCK  PTSUNNY   69  69  99 SW6       30.00R
JACKSONVILLE   LGT RAIN  70  70  99 SW8       29.99R
SEARCY         LGT RAIN  69  68  96 SW7       29.98R
HOT SPRINGS    CLOUDY    71  67  87 W5        30.01S
RUSSELLVILLE   CLOUDY    70  67  90 W9        29.99R
CLINTON        CLOUDY    72  68  88 CALM      29.98S
$$

ARZ036-301500-
EAST ARKANSAS

CITY           SKY/WX    TMP DP  RH WIND       PRES   REMARKS
WEST MEMPHIS   LGT RAIN  75  71  87 S17       29.98S
$$

ARZ050-053-066-070-073-301500-
SOUTHWEST ARKANSAS

CITY           SKY/WX    TMP DP  RH WIND       PRES   REMARKS
ARKADELPHIA    PTSUNNY   74  71  90 SW6       30.02S
CAMDEN         MOSUNNY   75  66  73 E8        30.02R
TEXARKANA      PTSUNNY   74  68  81 SW9       30.04R
EL DORADO      MOSUNNY   78  70  76 SW9       30.03R
DE QUEEN       CLOUDY    68  67  96 W6        30.03R
$$

ARZ056-057-069-301500-
SOUTHEAST ARKANSAS

CITY           SKY/WX    TMP DP  RH WIND       PRES   REMARKS
PINE BLUFF     CLOUDY    72  68  87 SW10      30.02R
STUTTGART      CLOUDY    72  66  83 SW9       30.01R
MONTICELLO     PTSUNNY   77  73  87 SW10      30.02R

$$





USA.gov is the U.S. government's official web portal to all federal, state and local government web resources and services.